Temperature
21 20 20 19 19 19 19 19 19 19 19 19 19 19 19 19 18 18 18 18 18 18 18 18 18 18 18 18 18 18 18 18 18 18 18 18 18 18 18 18 18 18 19
21 20 20 19 19 19 19 19 19 19 19 19 18 18 18 18 18 18 18 18 18 18 18 18 18 18 18 18 18 18 18 17 17 17 17 18 18 18 18 18 18 18 18
21 20 20 19 19 19 19 19 19 19 18 18 18 18 18 18 18 18 18 18 18 18 18 18 18 18 18 17 17 17 17 17 17 17 17 17 17 17 17 18 18 18 18
21 20 20 19 19 19 19 19 19 18 18 18 18 18 18 18 17 17 17 18 18 18 18 18 18 18 18 17 17 17 17 17 17 17 17 17 17 17 17 17 17 17 17
20 20 20 19 19 19 19 19 19 18 18 18 18 18 18 17 17 17 17 17 17 17 17 17 17 17 17 17 17 17 18 18 17 17 17 17 17 17 17 17 17 17 17
20 20 20 20 20 19 19 19 19 18 18 18 18 17 17 17 17 17 17 17 17 17 17 17 17 17 17 17 17 18 18 18 18 17 17 17 17 17 17 17 17 17 17
20 20 20 20 20 19 19 19 18 18 18 18 18 17 17 17 17 17 17 17 17 17 17 17 17 17 17 17 17 17 18 18 18 17 17 17 17 17 17 17 17 17 17
20 20 20 20 20 19 19 19 18 18 18 18 18 18 17 17 17 17 17 17 17 17 17 17 17 17 17 17 17 17 17 17 17 17 17 17 17 17 17 17 17 17 17
20 20 20 20 19 19 19 19 18 18 18 18 17 17 17 17 17 17 17 17 17 17 17 17 17 17 17 17 17 17 17 17 17 17 17 17 17 17 17 17 17 17 17
20 20 20 20 20 19 19 19 18 18 18 17 17 17 17 17 17 17 17 17 17 17 17 17 17 17 17 17 17 17 17 17 17 17 17 17 17 17 17 17 17 17 17
20 20 20 20 20 19 19 19 19 18 17 17 17 17 16 16 16 17 17 17 17 17 17 17 17 17 17 17 16 16 16 16 16 16 17 17 17 17 17 17 17 17 17
20 20 20 20 20 20 20 19 19 18 18 17 17 16 16 16 16 16 17 17 17 17 17 16 16 16 16 16 16 16 16 16 16 16 16 16 16 16 16 16 16 16 16
21 21 21 21 21 20 20 20 19 18 18 17 17 16 16 16 16 16 16 16 16 16 16 16 16 16 16 16 16 16 16 16 16 16 16 16 16 16 16 16 16 16 16
21 21 21 21 21 20 20 19 19 18 18 17 17 16 16 16 16 16 16 16 16 16 16 16 16 16 16 16 16 16 16 16 16 16 16 16 16 16 15 15 15 15 15
21 21 21 20 20 20 20 19 19 18 17 17 17 16 16 16 16 16 16 16 16 16 16 15 15 15 15 15 15 15 16 16 15 15 15 15 15 15 15 15 15 15 15
21 20 20 20 20 19 19 19 18 18 17 17 16 16 16 16 16 16 16 16 15 15 15 15 15 15 15 15 15 15 15 15 15 15 15 15 15 15 15 15 14 14 14
21 20 20 20 19 19 18 18 18 17 17 16 16 16 16 16 16 16 15 15 15 15 15 15 15 15 15 15 15 15 14 14 14 14 14 14 14 14 14 14 14 14 14
20 20 19 19 19 18 18 18 17 17 17 16 16 16 16 16 16 15 15 15 15 15 15 15 14 14 14 14 14 14 14 14 13 13 13 13 13 13 13 13 13 13 13
19 19 19 18 18 18 17 17 17 17 16 16 16 15 15 15 15 15 15 14 14 14 14 14 14 13 13 13 13 13 13 13 12 12 12 12 12 12 12 12 12 12 12
18 18 18 17 17 17 17 17 16 16 16 16 15 15 15 15 14 14 14 14 13 13 13 13 12 12 12 12 12 12 12 11 11 11 11 11 10 10 10 11 11 11 11
17 17 17 17 16 16 16 16 16 16 15 15 15 14 14 14 13 13 13 13 12 12 12 12 11 11 11 10 10 10 11 10 10 10 9 9 9 9 9 9 9 9 9
16 16 16 16 15 15 15 15 15 15 15 14 14 14 13 13 12 12 12 11 11 11 10 10 9 9 9 8 8 8 7 8 8 8 8 7 7 7 7 7 7 7 7
15 15 15 15 15 14 14 14 14 14 14 13 13 12 12 12 11 11 10 10 9 9 8 8 8 7 7 7 6 6 5 5 4 5 6 6 6 6 6 5 5 5 5
14 14 14 14 14 14 13 13 13 13 13 13 12 12 11 11 10 10 9 8 8 7 7 6 6 6 5 5 5 5 4 3 3 2 3 4 5 5 5 5 4 4 4
13 13 14 13 13 13 13 13 13 13 12 12 11 10 10 9 9 8 7 7 6 6 5 5 5 5 4 4 4 3 3 3 3 2 2 2 3 4 4 4 4 4 4
13 13 13 13 13 13 13 13 13 12 12 11 10 10 9 8 7 7 6 5 5 5 5 4 4 4 3 3 3 3 2 2 2 2 1 1 1 2 3 4 4 4 4
Wind_Speed
5 8 10 11 12 15 17 17 16 16 15 16 16 17 16 15 14 13 12 11 10 9 8 7 7 7 8 8 7 7 6 6 6 8 9 10 10 11 11 12 11 10 11
8 11 11 12 12 14 16 16 16 16 15 15 15 15 14 14 13 12 11 10 9 8 7 6 5 5 6 6 6 5 5 3 2 3 6 8 9 9 10 11 11 9 12
10 11 10 11 12 14 15 15 15 15 15 14 13 13 12 11 11 10 10 9 8 7 6 5 4 4 4 5 5 5 4 4 4 3 2 4 6 8 8 9 10 11 12
10 10 10 11 12 13 14 14 14 14 13 13 12 11 10 9 8 8 7 7 7 6 5 4 3 3 4 4 5 5 6 6 6 5 3 1 4 6 6 7 8 11 11
9 9 10 11 12 12 13 13 13 13 12 11 10 9 8 7 6 5 5 5 4 4 3 3 2 2 3 4 5 6 6 6 6 6 4 2 2 4 4 4 6 9 11
8 9 10 12 12 13 13 12 12 11 11 10 9 8 7 6 5 4 3 3 2 2 1 1 1 1 2 4 5 5 6 5 5 5 5 4 2 2 2 2 3 5 9
8 8 10 12 12 13 13 12 12 11 9 8 8 7 6 6 4 3 2 1 1 1 1 1 1 2 3 4 5 6 6 5 3 3 3 3 2 1 2 2 3 3 5
8 8 10 12 12 13 13 13 12 11 9 8 8 7 6 5 3 2 1 1 1 1 1 1 2 3 4 5 6 6 6 5 2 1 1 1 1 1 2 3 3 4 4
7 7 7 9 11 12 12 12 12 11 10 8 7 6 5 4 2 1 1 1 0 0 0 1 2 3 4 5 6 7 6 6 3 2 2 2 3 3 3 4 4 4 5
6 5 5 6 8 9 11 12 12 11 10 8 7 6 5 3 2 2 1 1 1 1 1 1 2 3 4 5 6 7 7 6 4 3 4 4 5 5 5 5 6 6 5
7 5 5 5 6 7 8 10 10 9 8 7 6 5 4 2 1 1 1 2 2 2 3 3 4 5 6 6 7 8 7 5 4 4 5 6 7 7 7 8 8 7 6
9 8 7 7 7 7 7 7 7 6 6 5 4 3 2 1 1 2 3 3 3 4 4 5 6 7 7 7 7 7 6 6 4 4 5 6 7 8 9 9 9 8 8
10 9 8 7 7 7 5 6 5 5 4 4 4 3 2 1 1 2 2 4 5 5 5 6 7 7 7 6 6 6 6 5 4 5 6 8 8 7 8 9 9 9 9
9 8 6 6 4 4 4 4 4 4 4 3 3 3 3 2 2 1 1 2 3 4 4 5 5 6 7 7 6 5 6 5 5 6 8 10 11 10 9 10 10 10 11
8 6 4 4 4 3 3 2 3 3 3 2 1 1 3 3 2 1 1 2 2 3 3 3 4 4 5 6 6 5 5 6 6 6 7 11 12 12 12 12 13 13 14
7 4 2 3 3 3 3 2 2 2 3 4 4 3 1 1 1 1 1 2 2 2 2 2 2 2 3 3 4 5 5 5 6 7 8 9 11 12 13 14 14 15 16
5 3 3 3 4 4 4 4 5 6 7 7 7 7 6 5 5 5 3 3 4 5 5 5 4 4 3 3 4 4 4 5 6 6 6 7 8 10 12 13 14 15 16
5 4 4 5 6 7 7 7 7 9 10 9 10 11 11 10 9 8 5 4 6 6 5 3 3 3 4 4 4 3 2 4 5 5 5 6 7 8 10 12 13 15 17
6 6 6 7 8 9 9 9 10 11 10 10 11 11 12 12 11 10 6 6 7 6 5 4 4 3 3 4 4 3 2 4 3 3 3 4 6 7 7 10 13 14 16
7 7 8 8 8 9 9 8 8 9 8 11 12 12 12 12 11 10 7 7 7 5 5 4 4 3 2 3 5 5 5 5 4 2 1 3 6 8 8 9 10 11 15
8 8 7 8 6 6 5 5 6 5 5 7 9 13 13 12 12 10 6 6 6 5 4 4 2 2 3 3 3 5 4 4 4 2 1 4 6 8 9 9 9 11 13
8 9 9 8 7 6 5 5 5 6 6 6 7 12 13 13 11 9 7 4 4 4 4 4 3 2 2 3 2 3 5 4 2 3 4 5 6 6 9 12 13 14 13
9 9 9 10 10 9 8 7 7 5 5 5 6 5 8 10 10 9 7 5 4 3 3 3 2 2 2 2 1 2 3 4 5 4 4 5 6 8 10 11 13 14 15
10 10 11 11 11 9 8 9 8 6 4 3 3 3 5 9 9 8 7 6 4 3 3 3 2 2 1 2 2 2 3 4 5 6 5 6 10 11 12 11 12 15 16
10 10 10 11 11 10 9 9 10 8 5 3 3 5 4 5 7 7 7 6 4 3 3 4 3 3 1 2 2 3 3 4 6 7 10 10 11 11 12 12 11 12 16
10 9 10 11 10 9 9 9 9 8 6 5 4 4 3 3 3 6 6 5 4 3 3 3 2 3 3 2 3 3 4 5 6 7 11 14 14 13 13 12 12 11 13
Wind_Direction
149 144 157 158 151 135 129 127 123 118 112 106 103 101 101 103 107 111 115 117 120 121 120 116 110 105 106 106 106 105 105 110 123 133 139 145 150 154 157 154 148 149 152
137 138 151 157 153 139 133 131 128 126 122 117 113 110 110 112 115 120 123 126 128 131 128 121 110 101 96 93 90 86 81 74 86 151 164 162 164 167 169 167 162 162 163
124 129 144 154 153 142 136 133 132 130 129 127 123 122 121 121 122 127 132 135 136 137 135 130 115 93 75 66 60 51 40 19 351 317 244 198 184 180 179 178 174 173 171
120 124 141 151 150 142 137 135 135 134 133 133 132 131 130 128 127 130 134 138 142 142 141 136 117 81 52 38 30 22 13 4 357 1 3 256 210 194 189 189 187 186 184
113 125 145 149 146 141 138 136 137 138 138 137 138 138 137 133 129 129 136 141 144 145 144 141 118 71 35 17 13 11 8 6 16 30 22 41 193 195 197 201 198 200 199
121 133 148 147 143 142 141 140 141 143 143 142 141 140 139 135 134 136 146 154 162 177 185 172 113 57 24 8 9 11 8 13 39 55 45 50 81 166 170 190 190 198 208
126 134 147 145 142 142 144 146 147 147 147 145 142 139 137 135 136 143 165 185 233 281 300 328 35 36 26 21 12 7 5 16 57 76 74 62 61 113 154 162 166 172 181
127 131 144 146 144 144 147 148 150 152 152 150 146 143 142 141 143 146 169 227 255 295 325 351 21 34 31 21 11 7 8 12 42 47 15 6 275 229 185 178 173 170 162
123 124 129 143 146 148 149 150 153 156 156 156 155 154 155 158 170 201 232 244 245 254 359 13 23 23 22 17 10 6 8 8 19 328 287 265 258 250 224 212 204 193 183
119 116 126 135 143 147 152 157 159 161 162 164 169 173 179 191 214 241 252 281 324 336 338 354 3 3 7 10 9 9 9 10 6 327 301 279 268 256 245 238 233 226 219
141 144 144 143 150 152 156 163 164 167 170 171 180 192 187 188 242 304 292 299 310 320 328 336 341 345 356 5 8 11 13 5 345 323 300 287 278 261 252 246 243 243 241
167 176 173 171 168 166 167 159 158 159 163 167 178 190 182 195 264 311 314 314 318 331 337 340 342 349 358 0 3 11 11 2 348 325 314 309 291 270 261 257 253 255 258
181 183 182 182 172 168 162 154 152 151 154 167 182 196 199 215 284 317 334 344 354 359 355 346 351 355 357 359 3 10 12 11 360 344 339 342 328 301 284 277 273 272 271
189 189 183 180 163 167 156 153 158 156 158 167 190 205 200 209 237 267 322 340 353 353 347 344 346 354 3 6 6 10 20 25 17 8 3 5 0 345 323 310 303 296 291
193 187 186 158 154 158 148 152 155 165 155 155 170 232 221 218 226 243 333 360 1 6 4 358 -0 7 12 12 14 23 27 28 26 22 15 15 13 7 356 343 331 321 312
188 176 150 122 135 128 128 126 111 113 103 87 66 38 74 193 168 118 74 47 37 50 61 63 53 52 40 25 17 21 28 28 25 26 25 21 17 10 3 355 345 334 323
163 132 95 111 96 99 98 92 85 83 85 77 68 63 72 89 101 100 87 68 62 76 82 78 69 66 51 27 10 7 22 17 13 14 18 17 12 7 0 352 343 335 330
115 93 68 85 86 87 89 86 83 82 83 78 73 69 71 80 90 89 80 66 64 70 70 73 54 56 40 16 347 333 352 350 347 346 3 14 13 4 355 348 341 334 327
98 90 80 82 89 93 92 89 86 82 78 74 70 67 68 72 79 82 73 62 59 57 45 48 47 47 29 358 325 303 317 306 294 319 351 19 6 348 338 334 330 325 320
88 88 89 88 94 100 97 92 85 74 68 65 62 60 62 65 68 72 69 60 61 59 46 41 47 42 24 342 323 311 291 278 266 254 329 352 329 316 314 315 314 313 313
82 84 83 90 89 96 95 93 88 77 65 60 59 58 60 63 65 66 67 59 57 61 51 39 30 17 5 351 339 319 298 278 272 223 308 319 310 308 306 306 306 306 306
90 85 80 76 70 64 74 82 89 93 77 68 57 53 53 56 57 63 62 56 49 53 42 31 31 10 347 13 354 318 318 315 318 285 298 300 309 313 311 311 310 303 299
90 88 87 77 71 66 74 86 88 75 65 47 40 38 37 50 55 59 56 52 42 43 34 14 20 15 317 310 294 278 298 295 310 284 289 300 306 308 305 307 303 302 300
97 92 88 83 79 74 78 88 89 90 85 60 45 39 32 41 46 50 47 43 36 26 10 346 12 342 308 305 310 282 265 277 292 300 290 292 299 301 300 300 300 299 296
103 98 93 90 83 79 82 90 94 92 93 85 60 48 34 25 30 32 35 29 19 7 355 347 347 349 339 308 306 305 298 289 259 281 297 298 299 293 295 295 293 292 290
105 99 96 93 84 80 84 86 97 104 104 92 65 47 25 5 5 14 17 15 6 358 351 353 4 18 16 347 322 302 293 290 291 288 293 297 297 295 294 291 288 285 285
Height
1527 1529 1531 1533 1535 1536 1537 1537 1538 1539 1540 1541 1542 1543 1544 1545 1546 1547 1548 1550 1551 1552 1553 1554 1555 1555 1555 1556 1556 1556 1556 1556 1556 1556 1555 1555 1556 1556 1556 1556 1556 1556 1557
1527 1529 1531 1533 1535 1537 1538 1539 1539 1540 1541 1542 1543 1544 1545 1546 1547 1549 1550 1551 1552 1553 1554 1555 1555 1556 1556 1556 1556 1556 1556 1556 1556 1556 1556 1557 1557 1557 1557 1557 1557 1557 1557
1528 1530 1532 1533 1535 1537 1538 1539 1540 1542 1542 1543 1544 1545 1546 1548 1549 1550 1551 1552 1553 1554 1555 1555 1556 1556 1556 1556 1556 1556 1555 1556 1556 1556 1557 1557 1558 1558 1558 1558 1558 1558 1558
1529 1531 1532 1534 1536 1538 1539 1540 1541 1543 1544 1545 1546 1547 1548 1549 1550 1551 1552 1553 1554 1555 1555 1555 1556 1556 1556 1556 1556 1555 1555 1556 1556 1556 1557 1558 1558 1559 1559 1559 1559 1559 1559
1530 1532 1533 1534 1536 1538 1540 1541 1542 1544 1545 1546 1547 1548 1549 1550 1551 1552 1553 1554 1554 1555 1555 1555 1555 1556 1556 1556 1555 1555 1555 1556 1556 1557 1558 1558 1559 1559 1559 1559 1559 1560 1560
1530 1532 1533 1535 1537 1539 1540 1542 1543 1544 1545 1547 1548 1548 1549 1550 1551 1552 1553 1554 1554 1554 1555 1555 1555 1555 1555 1555 1555 1555 1555 1555 1556 1557 1557 1558 1559 1559 1559 1559 1559 1559 1559
1531 1532 1534 1536 1538 1539 1541 1542 1544 1545 1546 1547 1548 1549 1550 1551 1551 1552 1553 1553 1554 1554 1555 1555 1555 1555 1555 1555 1555 1554 1554 1555 1555 1556 1557 1557 1557 1557 1558 1558 1558 1558 1558
1531 1533 1535 1537 1538 1540 1541 1543 1544 1545 1546 1547 1548 1549 1550 1551 1552 1553 1553 1553 1554 1554 1554 1554 1554 1554 1554 1554 1554 1554 1554 1554 1554 1555 1556 1556 1556 1556 1556 1556 1556 1556 1557
1532 1533 1535 1537 1538 1540 1541 1543 1544 1545 1546 1547 1548 1549 1550 1551 1552 1553 1553 1553 1554 1554 1554 1554 1554 1554 1554 1553 1553 1553 1552 1552 1553 1554 1554 1555 1555 1555 1555 1555 1555 1555 1556
1532 1534 1535 1537 1538 1539 1540 1542 1543 1544 1545 1546 1548 1549 1550 1551 1552 1552 1553 1553 1553 1553 1553 1553 1553 1553 1553 1553 1552 1552 1552 1552 1552 1553 1553 1554 1554 1554 1554 1554 1554 1554 1555
1531 1533 1535 1536 1537 1539 1540 1541 1542 1543 1544 1546 1547 1548 1549 1550 1551 1552 1552 1552 1552 1552 1552 1552 1552 1552 1552 1552 1552 1551 1551 1551 1552 1552 1552 1552 1553 1553 1553 1553 1553 1554 1554
1530 1532 1533 1534 1536 1537 1539 1541 1542 1543 1544 1545 1547 1548 1549 1550 1551 1551 1552 1552 1552 1552 1552 1551 1551 1551 1552 1552 1551 1551 1551 1551 1551 1551 1551 1551 1551 1551 1551 1551 1552 1552 1552
1528 1529 1531 1533 1535 1537 1538 1540 1541 1542 1544 1545 1546 1547 1548 1549 1550 1551 1551 1551 1551 1551 1551 1551 1551 1551 1551 1551 1550 1550 1550 1550 1550 1549 1549 1549 1549 1549 1549 1549 1549 1549 1549
1527 1529 1531 1532 1534 1536 1538 1540 1541 1542 1544 1545 1546 1547 1548 1549 1550 1550 1550 1551 1550 1550 1550 1550 1550 1550 1549 1549 1549 1548 1548 1548 1547 1547 1547 1546 1546 1545 1545 1545 1545 1545 1544
1527 1529 1530 1532 1534 1536 1538 1539 1541 1542 1543 1545 1546 1547 1547 1548 1549 1549 1549 1549 1549 1549 1549 1549 1548 1548 1547 1547 1546 1546 1546 1545 1544 1544 1544 1543 1542 1542 1541 1540 1540 1539 1539
1527 1529 1531 1532 1534 1535 1537 1539 1540 1542 1543 1543 1544 1545 1546 1547 1547 1547 1547 1547 1547 1546 1546 1546 1545 1545 1544 1544 1543 1543 1542 1541 1541 1540 1539 1538 1538 1537 1536 1535 1535 1534 1534
1527 1529 1530 1532 1533 1534 1536 1537 1539 1540 1541 1542 1543 1544 1544 1545 1545 1544 1544 1544 1544 1543 1543 1542 1541 1541 1540 1540 1539 1538 1537 1537 1536 1534 1533 1532 1531 1530 1530 1529 1528 1528 1527
1526 1528 1529 1530 1532 1533 1535 1536 1537 1538 1539 1540 1541 1542 1542 1542 1542 1542 1541 1541 1540 1540 1539 1538 1537 1536 1535 1534 1533 1533 1531 1530 1529 1528 1526 1525 1524 1523 1522 1521 1520 1520 1519
1524 1526 1528 1529 1531 1532 1533 1534 1535 1536 1537 1538 1539 1539 1540 1540 1539 1539 1539 1538 1537 1536 1535 1533 1532 1531 1529 1528 1527 1526 1525 1524 1522 1521 1519 1518 1516 1515 1514 1513 1511 1511 1510
1522 1525 1526 1528 1529 1531 1532 1533 1534 1535 1535 1536 1537 1537 1537 1537 1537 1536 1535 1534 1533 1532 1530 1529 1527 1525 1523 1521 1520 1518 1517 1516 1515 1513 1512 1510 1509 1507 1506 1504 1502 1501 1500
1520 1523 1525 1527 1529 1530 1532 1533 1533 1534 1534 1534 1535 1535 1535 1534 1533 1533 1532 1530 1529 1527 1526 1524 1522 1520 1517 1515 1513 1510 1509 1508 1507 1505 1503 1502 1500 1499 1497 1494 1492 1491 1489
1519 1522 1524 1527 1528 1530 1532 1533 1533 1533 1533 1533 1533 1532 1532 1531 1530 1529 1528 1526 1524 1523 1521 1519 1517 1514 1512 1510 1508 1505 1501 1499 1498 1497 1495 1494 1492 1491 1488 1486 1483 1481 1479
1518 1520 1523 1525 1528 1530 1531 1532 1532 1532 1532 1531 1530 1530 1529 1528 1527 1525 1524 1522 1520 1518 1516 1514 1512 1510 1508 1506 1504 1503 1499 1493 1490 1488 1487 1486 1485 1483 1481 1478 1475 1473 1471
1517 1520 1523 1525 1527 1529 1530 1531 1531 1530 1530 1529 1529 1527 1526 1525 1523 1521 1520 1518 1516 1514 1512 1510 1508 1506 1504 1502 1500 1499 1497 1493 1489 1482 1480 1479 1478 1475 1474 1471 1469 1467 1464
1517 1520 1522 1525 1527 1528 1529 1529 1529 1529 1528 1527 1526 1524 1523 1521 1519 1517 1516 1514 1513 1511 1509 1507 1505 1503 1500 1498 1496 1494 1492 1489 1486 1481 1475 1472 1470 1468 1467 1465 1462 1460 1458
1518 1521 1523 1525 1526 1528 1528 1528 1527 1527 1526 1525 1523 1521 1519 1517 1516 1514 1512 1511 1509 1507 1505 1503 1502 1499 1497 1495 1492 1490 1488 1484 1481 1477 1471 1467 1463 1460 1459 1457 1456 1454 1452